Helicity
186 190 157 146 110 123 143 145 142 136 136 118 97 88 87 88 79 69 72 76 60 42 29 25 31 46 -20 32 28 63 49 39 35 29 30 28 46 33 53 46 41 60 82 73 57 57 40
202 190 178 147 137 141 154 151 159 159 156 168 150 108 101 101 94 70 59 64 43 38 19 12 15 16 -4 47 53 66 58 56 57 35 25 37 42 44 63 64 59 58 55 46 33 34 44
194 196 187 123 128 178 185 169 174 156 151 144 156 148 121 100 87 84 59 68 56 40 33 23 23 -11 30 31 75 66 70 75 64 47 34 39 48 61 56 70 69 70 65 58 53 59 64
129 134 106 85 123 105 136 130 128 117 135 145 155 136 107 99 95 84 82 72 58 48 43 30 38 19 40 70 59 61 88 92 79 69 67 64 74 80 83 75 92 90 73 85 72 80 110
156 137 134 125 107 105 100 105 98 99 116 128 133 140 139 112 83 96 93 77 61 54 58 40 54 54 25 43 56 35 32 45 65 79 85 87 83 94 88 96 87 112 96 93 96 100 100
174 149 124 138 156 130 112 116 132 98 93 110 122 131 124 118 94 100 94 74 81 74 79 78 101 75 57 90 74 61 52 65 103 117 126 132 132 115 110 102 98 110 99 94 102 112 136
106 138 154 123 124 134 122 129 141 131 113 82 106 129 141 130 127 124 120 98 80 60 73 50 81 89 89 109 72 79 104 134 152 156 114 147 135 110 75 113 140 129 123 124 103 87 117
101 83 118 130 113 119 124 107 149 151 131 98 97 109 125 120 124 128 117 103 86 77 63 40 40 58 79 121 147 141 163 138 156 142 182 166 124 93 143 139 142 156 134 116 100 84 121
116 98 63 107 125 105 104 132 135 149 147 117 100 98 125 115 125 146 125 118 90 53 39 30 61 79 92 117 123 63 167 230 219 215 166 136 168 173 151 161 150 161 174 151 116 147 138
101 106 71 58 78 105 106 118 107 127 124 90 79 90 96 106 141 133 142 108 74 57 88 40 83 89 47 42 89 49 81 161 177 135 135 137 109 97 125 139 119 148 79 128 146 170 203
109 113 96 71 75 77 90 100 98 112 116 70 90 96 112 122 123 140 105 78 58 90 147 115 116 32 46 67 90 111 17 90 35 120 116 109 124 142 130 90 94 121 138 136 112 152 197
84 70 97 98 91 93 98 92 86 104 114 95 76 89 114 148 154 128 124 91 117 186 212 210 154 117 123 90 93 67 66 60 55 86 105 75 98 82 87 96 86 121 156 138 176 186 242
86 78 98 115 107 99 100 90 93 105 109 112 91 108 160 166 180 164 125 162 255 272 209 229 191 129 95 100 72 59 83 78 88 110 90 103 64 52 91 84 54 81 108 199 199 217 226
92 82 95 101 100 82 94 89 100 102 94 105 104 117 158 141 127 134 144 249 323 262 229 220 184 155 134 88 84 84 106 101 62 111 117 118 137 37 53 23 72 103 108 198 217 178 186
97 96 84 101 106 92 95 97 85 98 99 96 124 138 141 108 94 122 191 288 233 198 218 236 179 135 120 99 87 83 63 71 46 65 73 79 89 56 40 64 59 100 134 85 109 111 165
97 92 90 84 102 96 97 100 95 98 107 117 163 144 125 77 91 156 232 238 227 217 245 173 144 116 114 75 70 65 49 65 45 38 95 81 105 56 36 53 66 74 76 127 194 158 156
98 97 101 101 104 87 81 86 87 97 112 94 164 172 126 80 148 219 236 223 216 193 183 141 120 111 67 65 60 70 96 85 61 86 44 93 110 86 76 57 76 94 78 129 121 137 147
105 93 101 93 103 88 80 77 78 82 73 148 187 200 130 130 205 235 183 171 161 175 158 107 92 85 96 92 65 73 91 83 110 80 105 59 90 96 41 48 34 44 54 79 115 89 93
128 101 87 92 96 101 97 72 69 70 99 188 197 181 142 181 189 205 213 150 124 135 111 122 108 62 69 59 81 62 62 59 52 55 137 80 125 96 52 61 71 58 62 67 87 142 83
136 145 114 124 123 115 133 102 65 65 65 185 198 178 218 184 175 139 132 115 119 81 45 73 87 119 103 112 111 122 119 98 97 63 31 75 67 53 49 68 74 50 58 79 78 87 88
84 114 148 134 117 92 108 82 64 60 36 175 197 186 169 158 151 145 111 88 42 60 49 46 64 44 55 96 88 83 74 72 27 -47 -7 43 85 89 61 58 66 107 100 115 121 155 122
158 163 126 134 124 120 100 101 54 55 8 182 237 234 233 190 96 48 64 63 47 78 104 63 69 134 108 121 179 148 110 142 98 140 59 84 47 48 29 54 69 90 94 143 225 198 135
95 103 106 98 102 116 94 67 85 51 135 284 288 263 200 115 166 106 109 83 57 47 70 90 106 110 103 172 122 166 92 -5 -13 -40 -10 55 78 72 22 54 79 -3 107 168 151 131 120
83 136 114 115 138 123 91 75 94 73 149 231 240 221 184 141 104 100 87 73 71 73 73 84 74 93 176 115 49 54 36 40 36 -6 9 23 67 83 58 79 -30 78 92 80 78 55 65
97 111 101 92 114 119 101 77 97 86 114 228 216 192 187 83 59 59 68 89 94 64 89 97 108 144 94 129 190 166 111 64 44 50 23 21 72 105 50 -14 10 29 119 99 58 7 25
77 81 85 102 119 104 87 63 87 75 96 186 184 142 124 92 23 52 41 60 80 76 54 78 65 62 115 205 162 180 121 46 76 55 27 58 72 84 49 -21 -11 88 64 28 9 -15 -25
98 102 100 91 84 75 57 52 49 71 76 155 120 110 139 101 65 74 74 32 77 62 65 63 34 91 165 197 207 205 200 106 111 64 59 62 83 16 17 26 62 67 99 68 19 -5 -9
120 105 107 58 30 42 29 29 19 23 59 143 121 87 122 109 48 91 58 48 53 50 82 43 77 88 123 134 151 161 200 105 75 49 62 61 26 72 126 43 -6 103 126 56 52 35 38
75 44 27 17 30 35 27 30 3 16 51 108 113 80 136 129 77 77 44 31 58 30 68 158 81 41 72 71 79 125 116 71 55 53 75 57 91 46 64 62 81 67 58 72 50 60 53
Wind_Speed
43 44 50 51 54 53 55 54 54 56 55 58 59 52 50 49 49 51 51 53 55 60 63 66 69 70 57 51 38 37 36 40 39 40 43 41 41 37 37 36 37 33 33 33 32 39 37
45 51 55 57 56 56 56 58 58 54 58 59 56 56 54 51 50 49 48 49 52 57 59 63 65 65 48 56 38 42 39 39 39 40 41 41 37 36 35 37 38 36 40 41 41 34 34
50 53 57 59 58 56 54 54 56 57 54 56 57 57 54 55 51 46 47 50 51 53 57 60 62 56 50 48 41 45 42 38 38 38 38 37 36 37 36 40 39 39 43 47 41 39 34
50 56 57 57 54 53 51 50 51 52 51 53 54 55 55 51 50 43 43 47 50 53 57 58 61 53 50 43 52 53 41 40 38 38 36 35 36 36 39 40 42 42 41 44 37 39 40
57 57 57 53 53 52 54 51 52 49 51 50 52 53 53 52 48 46 45 46 52 56 57 58 53 50 57 49 40 39 31 34 33 36 36 34 37 38 39 44 51 48 52 47 49 42 40
60 58 53 52 51 54 54 54 53 50 49 51 50 48 51 50 44 40 47 50 54 58 50 48 48 51 46 44 43 44 37 33 38 36 41 40 42 45 46 49 65 57 57 56 54 45 45
55 54 53 53 51 51 54 54 52 52 49 47 45 47 47 46 41 41 45 47 54 52 46 47 48 52 52 53 45 43 41 36 37 41 49 46 53 59 56 50 53 56 58 63 59 54 66
51 50 53 50 52 51 52 51 50 52 48 43 43 45 47 40 40 41 41 46 46 47 65 54 53 57 57 53 59 47 38 40 41 49 46 57 69 59 54 53 56 59 66 73 72 66 60
56 53 49 52 50 49 49 46 49 47 46 43 43 43 43 39 37 38 40 40 40 42 58 62 52 54 51 41 54 54 40 44 49 51 53 65 60 49 52 57 62 62 65 69 73 69 65
58 54 52 49 49 48 48 48 43 45 45 42 38 35 37 34 38 38 38 40 38 39 64 59 51 46 39 35 47 39 34 40 47 58 55 62 56 60 62 67 64 79 62 69 75 71 80
50 50 47 47 44 44 45 44 44 46 45 32 29 33 32 31 35 36 39 36 33 38 78 48 43 35 33 37 42 48 33 34 48 51 48 54 55 57 59 59 48 61 54 65 67 69 75
47 48 43 40 36 39 38 39 41 43 40 35 30 27 28 34 33 36 35 27 31 53 74 51 41 43 42 42 45 39 40 38 42 47 53 61 55 60 59 53 52 51 68 68 63 63 83
49 47 45 41 38 33 30 30 32 36 35 36 32 28 30 31 32 37 29 27 52 64 47 52 49 41 43 43 45 46 47 47 51 57 60 60 62 61 56 67 61 63 67 75 74 69 82
51 47 42 41 39 36 32 30 30 32 31 29 27 24 30 28 29 30 25 36 67 52 51 43 41 40 49 47 50 48 49 51 45 47 58 65 70 50 43 46 54 51 49 61 79 76 76
54 49 45 41 37 34 32 30 30 30 30 28 23 28 33 30 27 27 28 54 53 46 42 44 45 50 52 48 46 47 48 50 47 39 53 59 62 48 45 40 46 48 52 53 66 70 77
54 49 45 39 36 33 30 29 28 28 27 21 27 32 34 24 24 25 36 53 44 36 39 42 51 47 52 47 49 49 49 44 48 40 39 50 70 51 48 44 45 45 45 53 46 63 66
55 51 46 39 35 32 29 25 24 25 25 24 28 33 34 19 24 30 47 44 43 44 42 46 49 52 51 55 51 51 50 50 49 46 39 45 51 55 51 46 41 45 45 44 43 49 62
57 53 49 41 36 34 31 28 23 22 19 20 31 40 34 22 33 37 44 43 42 44 43 48 48 52 53 48 53 51 53 47 41 44 57 49 52 63 57 42 36 39 43 42 52 55 49
57 55 52 47 41 38 34 32 26 24 22 24 32 41 31 33 42 43 44 45 47 48 43 48 49 45 43 48 53 50 52 49 57 55 51 44 48 59 58 41 31 36 35 37 46 48 52
60 58 60 55 50 44 41 35 31 26 26 24 33 40 37 39 43 45 50 55 53 46 50 47 49 50 53 52 52 59 57 49 42 46 44 42 47 50 59 51 51 52 48 45 42 52 59
55 56 57 59 51 46 44 40 34 29 29 33 40 47 40 46 52 50 42 47 46 50 45 38 48 47 51 60 63 66 68 67 57 57 52 36 46 42 49 49 51 55 51 48 48 49 43
56 52 51 53 52 49 48 43 37 33 32 43 45 44 42 49 43 42 46 53 57 53 52 51 54 50 51 55 51 65 57 47 40 29 36 39 46 46 56 55 49 62 44 46 39 36 39
55 50 43 43 49 47 46 44 40 38 35 45 42 41 44 50 48 48 53 52 54 48 53 45 54 59 55 50 57 51 47 44 54 60 67 62 54 50 75 52 51 77 23 20 37 44 41
55 49 43 39 41 48 50 47 43 42 43 45 49 44 52 62 58 56 54 48 50 49 61 58 47 48 45 42 55 45 27 28 28 37 29 34 36 45 61 39 69 47 45 45 42 42 26
61 53 46 42 38 41 47 51 53 45 43 51 41 42 50 70 64 64 57 62 62 60 67 73 57 42 59 52 41 40 40 41 29 17 16 18 26 40 57 67 66 67 49 41 32 47 41
49 44 42 39 37 38 42 47 50 47 43 45 50 43 49 66 75 59 55 48 57 63 71 58 53 50 31 32 27 32 31 30 36 35 3 12 35 44 52 65 64 43 31 28 32 39 34
44 40 37 36 37 36 40 43 45 48 42 44 51 46 48 66 61 53 51 45 40 43 53 56 49 37 15 19 20 24 34 25 34 30 27 27 45 60 65 68 57 25 24 23 41 41 38
38 37 35 37 38 35 41 45 37 40 43 41 50 40 45 59 64 53 43 53 48 47 53 47 46 35 23 18 25 27 27 22 32 33 32 30 46 48 43 60 61 24 25 44 40 39 34
34 33 36 38 35 41 44 43 32 33 35 34 50 38 38 54 55 50 63 71 72 63 55 37 45 39 21 16 15 26 32 26 31 44 37 49 42 40 22 29 33 24 37 32 30 34 32
Wind_Direction
291 293 292 295 296 299 300 300 302 303 306 306 304 308 312 313 316 318 321 323 326 326 328 326 324 322 336 329 332 339 344 344 350 348 343 340 336 335 327 328 325 324 322 318 315 306 308
288 291 290 291 293 297 298 297 299 303 302 301 305 307 307 310 313 316 320 324 326 325 326 325 325 323 336 320 334 329 333 339 342 344 341 339 338 337 332 324 320 323 316 311 308 312 309
290 288 290 291 293 296 296 297 300 298 302 302 304 306 307 306 310 314 316 318 321 325 324 323 323 326 325 321 325 320 325 330 333 339 339 340 337 330 327 320 322 320 316 310 309 309 306
286 289 289 290 291 293 295 295 297 300 303 304 306 309 307 307 307 315 317 318 319 321 322 322 319 324 317 323 315 309 316 318 324 329 335 338 337 331 322 320 318 316 317 312 318 315 309
285 287 288 289 290 292 293 293 295 298 302 305 307 309 309 307 306 311 313 315 315 316 316 316 320 320 312 316 327 328 329 321 324 324 328 334 332 326 323 315 308 310 304 305 306 310 309
285 285 284 286 287 289 291 292 295 295 300 303 305 309 310 309 309 312 310 313 314 313 316 319 315 313 313 316 318 321 325 321 318 318 317 318 318 311 313 309 299 303 303 302 301 306 306
285 282 283 284 286 289 289 291 294 295 300 299 304 308 310 311 315 313 313 314 312 311 316 307 309 307 310 314 318 318 320 314 313 311 304 310 303 300 304 305 303 302 301 297 299 301 299
278 279 282 283 285 287 288 289 296 294 296 298 302 306 308 310 311 310 312 309 311 314 305 306 302 301 302 309 306 311 316 307 303 299 304 303 297 301 304 303 300 298 298 294 297 299 296
273 274 278 279 282 285 288 290 294 295 292 295 299 304 308 308 310 311 309 311 319 319 307 306 308 306 306 307 300 299 308 305 301 297 297 295 300 310 304 302 300 298 296 297 295 299 297
269 270 273 274 277 280 284 287 291 295 296 292 297 306 310 308 305 307 307 312 320 325 305 307 309 313 321 321 314 326 305 305 304 298 299 298 303 298 297 296 296 293 298 296 295 295 291
265 266 270 271 272 278 281 284 289 290 294 293 297 304 308 307 308 304 309 313 322 324 295 312 314 330 329 321 322 323 330 314 295 299 304 302 304 305 303 304 304 300 308 304 299 292 291
267 265 266 268 271 275 277 281 288 288 290 290 294 301 302 306 309 309 311 318 322 301 291 304 315 313 315 318 320 327 326 326 320 301 300 298 304 302 301 302 302 305 303 304 303 296 287
262 264 264 263 268 270 272 281 286 290 288 285 289 294 297 304 301 308 311 312 295 289 308 303 306 310 312 315 318 317 315 312 310 307 303 306 302 299 298 297 298 296 297 296 295 293 291
258 257 258 259 263 265 265 272 280 287 286 284 289 295 299 305 310 310 307 298 286 298 298 311 312 310 307 314 313 315 312 310 311 311 308 306 304 311 316 303 302 302 297 290 294 296 298
256 254 253 254 256 257 259 265 275 281 282 277 283 288 293 295 303 303 289 285 292 298 306 304 308 303 304 310 312 315 311 310 311 308 305 307 304 313 309 313 312 307 298 303 293 292 297
248 248 249 249 247 252 251 257 268 272 273 268 275 281 283 289 297 292 283 286 294 302 308 308 300 307 303 310 309 311 310 315 315 315 312 311 303 313 315 314 312 303 311 302 303 300 298
243 242 243 241 240 244 246 248 258 263 263 260 273 277 285 284 289 281 278 284 292 295 303 304 301 300 303 304 304 305 308 313 314 318 320 313 306 306 313 313 309 315 312 308 305 302 302
239 237 239 233 233 237 240 243 246 254 249 251 269 275 284 273 272 279 278 286 293 297 302 300 303 298 298 305 304 303 302 305 326 323 312 314 308 301 302 314 316 313 309 306 299 303 305
232 234 235 232 232 234 234 239 237 241 235 252 266 275 280 269 272 274 285 287 288 292 299 301 300 301 306 302 301 303 303 311 304 309 313 319 307 304 305 313 321 314 319 314 309 306 298
234 236 236 237 239 236 232 229 234 231 231 248 269 270 275 267 278 280 279 284 286 295 294 295 295 299 299 298 299 301 306 317 319 319 321 319 296 288 292 297 303 303 307 311 312 307 307
226 230 234 237 237 233 224 225 230 228 222 246 266 269 272 271 269 276 281 287 289 290 296 302 299 295 296 297 300 296 298 300 301 301 310 310 301 297 293 298 301 299 302 307 305 303 293
227 226 230 232 233 229 226 226 227 229 219 248 262 270 273 279 276 273 272 282 281 288 291 295 291 298 300 299 298 303 310 316 313 321 317 313 302 301 295 297 302 298 303 305 302 302 295
217 215 218 224 228 224 224 225 227 226 227 255 263 274 278 279 274 274 274 282 288 292 294 291 294 296 301 300 303 301 304 299 296 293 291 293 297 299 279 300 305 278 299 282 310 311 311
222 216 214 212 220 225 227 230 231 228 233 259 263 267 270 271 273 273 283 283 286 290 288 295 299 295 308 308 309 315 299 295 295 294 280 284 291 294 287 306 266 314 322 321 317 315 316
223 223 223 216 214 226 229 233 236 233 231 250 263 265 266 269 275 275 279 280 286 290 289 288 296 290 300 303 305 311 319 310 300 253 256 225 280 290 281 270 273 288 315 321 333 309 316
211 213 214 222 224 227 234 237 237 234 230 245 254 264 269 270 268 280 284 286 287 292 291 299 305 302 302 294 292 303 314 323 315 309 248 256 276 280 281 254 255 316 349 1 325 250 236
209 210 211 222 228 232 237 239 236 233 231 243 259 256 266 266 274 280 283 292 300 304 302 306 313 314 286 275 277 297 304 317 303 300 300 279 272 210 227 258 283 333 339 342 285 266 287
203 209 218 225 234 237 245 242 227 223 233 242 256 260 256 268 273 282 291 286 291 294 295 309 314 305 292 282 280 300 309 302 294 295 291 285 270 278 283 263 253 330 320 277 291 293 328
204 205 214 229 239 246 246 238 212 215 230 237 257 262 268 272 279 286 277 270 264 279 291 308 296 300 306 304 313 303 299 300 287 277 281 270 281 284 314 310 314 325 293 303 312 316 337